839  
ASUS45 KREV 220810  
RWRNV  
NEVADA REGIONAL WEATHER ROUNDUP  
NATIONAL WEATHER SERVICE RENO NV  
100 AM PDT FRI JUN 22 2018  
 
NOTE: "FAIR" INDICATES FEW OR NO CLOUDS BELOW 12,000 FEET WITH NO  
SIGNIFICANT WEATHER AND/OR S TO VISIBILITY
.  
 
NVZ001-003-004-220900-  
WESTERN NEVADA  
 
CITY SKY/WX TMP DP RH WIND PRES REMARKS
 
RENO CLEAR 69 32 25 W3 30.15R  
CARSON CITY FAIR 57 28 33 NW6 30.18R  
MINDEN FAIR 48 32 53 SE7 30.18S  
SLIDE MTN N/A 54 25 32 MISG N/A  
FALLON CLEAR 64 31 28 VRB3 30.07S  
LOVELOCK CLEAR 66 22 18 N6 30.07R  

 
 
NVZ002-CAZ072-073-220900-  
NORTHERN AND CENTRAL SIERRA  
 
CITY SKY/WX TMP DP RH WIND PRES REMARKS
 
S. LAKE TAHOE CLEAR 46 34 62 SW3 30.27S  
TRUCKEE CLEAR 45 32 61 E3 30.27S  
SQUAW VLY 8000 N/A 54 16 22 W1 N/A  
BLUE CANYON CLEAR 66 31 27 NE5 30.20F  
MAMMOTH LAKES FAIR 47 17 29 N5 30.32S  
BRIDGEPORT FAIR 46 20 35 CALM 30.29R  

 
 
NVZ030-031-036-220900-  
NORTHERN NEVADA  
 
CITY SKY/WX TMP DP RH WIND PRES REMARKS
 
ELKO CLEAR 55 37 50 S3 30.15R  
WINNEMUCCA CLEAR 68 36 30 NE7 30.11R  

 
 
NVZ035-037-220900-  
CENTRAL NEVADA  
 
CITY SKY/WX TMP DP RH WIND PRES REMARKS
 
ELY MOCLDY 62 13 14 NE7 30.20R  
EUREKA N/A 55 21 26 S5 30.20R  

 
 
NVZ013-014-220900-  
SOUTH CENTRAL NEVADA  
 
CITY SKY/WX TMP DP RH WIND PRES REMARKS
 
TONOPAH CLEAR 67 13 12 NE8 30.15R  

 
 
NVZ017-020-022-220900-  
SOUTHERN NEVADA  
 
CITY SKY/WX TMP DP RH WIND PRES REMARKS
 
LAS VEGAS CLEAR 92 20 7 S7 29.76F  
N. LAS VEGAS CLEAR 96 -9 2 SW12 29.75F  
NELLIS AFB CLEAR 93 26 9 S14 29.73F  
HENDERSON CLEAR 91 20 7 S10 29.82S  
MERCURY CLEAR 83 9 6 N12 29.88R  

 
 
 
CLICK HERE TO GO TO PREVIOUS BULLETINS.

The Nexlab NV Page Main Text Page